Regional Weather Roundup
Issued by NWS

Home | Current Version | Previous Version | Graphics & Text | Print | Product List | Glossary On
Versions: 1 2 3 4 5 6 7 8 9 10 11 12 13 14 15 16 17 18 19 20 21 22 23 24 25 26 27 28 29 30 31 32 33 34 35 36 37 38 39 40 41 42 43 44 45 46 47 48 49 50
304
ASUS43 KBIS 251902
RWRND

NORTH DAKOTA REGIONAL WEATHER ROUNDUP
NATIONAL WEATHER SERVICE BISMARCK ND
200 PM CDT MON SEP 25 2017

NOTE: "FAIR" INDICATES FEW OR NO CLOUDS BELOW 12,000 FEET WITH NO
SIGNIFICANT WEATHER AND/OR OBSTRUCTIONS TO VISIBILITY.


NDZ001>003-009>011-017-252000-
NORTHWEST NORTH DAKOTA

CITY           SKY/WX    TMP DP  RH WIND       PRES   REMARKS
WILLISTON      CLOUDY    52  42  69 CALM      30.15S
MINOT          CLOUDY    54  42  64 CALM      30.15S
MINOT AFB      CLOUDY    52  44  72 CALM      30.14F
$$

NDZ018>021-031>035-040>046-252000-
SOUTHWEST NORTH DAKOTA

CITY           SKY/WX    TMP DP  RH WIND       PRES   REMARKS
BISMARCK       CLOUDY    53  43  68 N7        30.14F
DICKINSON      LGT RAIN  46  42  86 SW3       30.13F FOG
GARRISON         N/A     51  43  74 CALM      30.14F
HETTINGER ARPT CLOUDY    45  39  79 SE3       30.15F
$$

NDZ004>008-012>016-024-026-027-054-252000-
NORTHEAST NORTH DAKOTA

CITY           SKY/WX    TMP DP  RH WIND       PRES   REMARKS
GRAND FORKS    CLOUDY    53  47  79 N14       30.12F
GRND FRKS AFB  CLOUDY    52  44  76 N12       30.13F
DEVILS LAKE    CLOUDY    50  42  74 NE10      30.16S
$$

NDZ022-023-025-028>030-036>039-047>053-252000-
SOUTHEAST NORTH DAKOTA

CITY           SKY/WX    TMP DP  RH WIND       PRES   REMARKS
FARGO          CLOUDY    52  47  83 N12       30.10S
JAMESTOWN      CLOUDY    50  43  77 N8        30.13S
$$





USA.gov is the U.S. government's official web portal to all federal, state and local government web resources and services.